International Virtual Aviation Organisation

Eastern Europe and Northern Asia MCD

 

Карточка аэропорта URKA

Внимание!
Информация на этой странице в стадии наполнения.
Если вы не увидели какой-то информации, или заметили неточность - пожалуйста сообщите нам!
Спасибо!
Команда RU-STAFF
Название аэропортаВитязево
Название аэропорта (англ.)Vityazevo
Превышение176 ft. (53.6 m.)
Координаты45°0.13200000000012', 37°20.832'
Высота перехода1100m
Эшелон переходаFL050
Коды ответчика2400-2407
Зона ОрВДРостов-на-Дону РПИ (URRV)
Данные METARURKA 101030Z 08005MPS 9999 SCT026 08/03 Q1022 R04/010070 NOSIG RMK QFE763/1017
Проноз погоды (TAF)URKA 100752Z 1009/1109 05005G12MPS 6000 BKN020CB TEMPO 1009/1109 01008G13MPS 3000 -SHRA BKN011 BKN016CB
NOTAMshow/hide NOTAM
AWOS   TABLE

Информация о ВПП

ВПП Длина ВПП (м.) Покрытие Курс ВПП Частота ILS
042500Цементобетон36109.1
222500Цементобетон216 

Диспетчерские позиции

Позывной Наименование органа УВД Частота
URKA_R_APPАнапа-Круг118.7
URKAFM1119,0
URKA_GNDАнапа-Руление119.0
URKA_TWRАнапа-Старт119.8



Спутниковое изображение